Weather History for Flagstaff, AZ

Change the Weather History Date:

Thursday, June 14, 2012

  Actual Average Record
Temperature  
Mean Temperature 62 °F 59 °F  
Max Temperature 79 °F 78 °F 92 °F (1974)
Min Temperature 45 °F 41 °F 25 °F (2001)
Degree Days  
Heating Degree Days 3 6  
Month to date heating degree days 62 109  
Since 1 June heating degree days 62  
Since 1 July heating degree days 6526 6882  
Cooling Degree Days 0 0  
Month to date cooling degree days 0 0  
Year to date cooling degree days 0 0  
Since 1 June cooling degree days 0  
Growing Degree Days 12 (Base 50)    
Moisture  
Dew Point 16 °F    
Average Humidity 22    
Maximum Humidity 37    
Minimum Humidity 7    
Precipitation  
Precipitation 0.00 in 0.01 in 0.88 in (1921)
Month to date precipitation 0.00 0.15  
Year to date precipitation 4.46 8.26  
Snow  
Snow 0.00 in 0.00 in 0.00 in (2002)
Month to date snowfall 0.0 0.1  
Since 1 July snowfall 102.9 101.8  
Snow Depth 0.00 in    
Sea Level Pressure  
Sea Level Pressure 29.82 in    
Wind  
Wind Speed 7 mph (SW)    
Max Wind Speed 20 mph    
Max Gust Speed 30 mph    
Visibility 10 miles    
Events      
T = Trace of Precipitation, MM = Missing Value Source: NWS Daily Summary

Daily Weather History Graph

Daily Weather History Graph

Search for Another Location

Airport:

Trip Planner

Search our weather history database for the weather conditions in past years. The results will help you decide how hot, cold, wet, or windy it might be!

Date:

Astronomy

Jun. 14, 2012 Rise Set
Actual Time 5:11 AM MST 7:42 PM MST
Civil Twilight 4:42 AM MST 8:12 PM MST
Nautical Twilight 4:05 AM MST 8:49 PM MST
Astronomical Twilight 3:24 AM MST 9:29 PM MST
Moon 1:49 AM MST (6/14) 3:35 PM MST (6/14)
Length of Visible Light 15h 30m
Length of Day
14h 30m
Waning Crescent, 20% of the Moon is Illuminated
Jun 14
Waning Crescent
Jun 19
New
Jun 26
First Quarter
Jul 3
Full
Jul 10
Last Quarter

Hourly Weather History & Observations

Time (MST) Temp. Dew Point Humidity Pressure Visibility Wind Dir Wind Speed Gust Speed Precip Events Conditions
12:57 AM 50.0 °F 21.0 °F 32% 29.81 in 10.0 mi Calm Calm - N/A   Clear
1:57 AM 48.0 °F 21.9 °F 36% 29.81 in 10.0 mi Calm Calm - N/A   Clear
2:57 AM 46.9 °F 21.9 °F 37% 29.81 in 10.0 mi Calm Calm - N/A   Clear
3:57 AM 53.1 °F 21.9 °F 30% 29.78 in 10.0 mi WNW 3.5 mph - N/A   Clear
4:57 AM 52.0 °F 21.9 °F 31% 29.79 in 10.0 mi Calm Calm - N/A   Clear
5:57 AM 54.0 °F 21.0 °F 28% 29.80 in 10.0 mi WNW 3.5 mph - N/A   Clear
6:57 AM 62.1 °F 21.9 °F 21% 29.81 in 10.0 mi SSW 4.6 mph - N/A   Clear
7:57 AM 64.9 °F 23.0 °F 20% 29.84 in 10.0 mi South 10.4 mph - N/A   Clear
8:57 AM 68.0 °F 21.0 °F 17% 29.85 in 10.0 mi WSW 8.1 mph 17.3 mph N/A   Clear
9:57 AM 72.0 °F 21.9 °F 15% 29.85 in 10.0 mi SSW 10.4 mph 19.6 mph N/A   Clear
10:57 AM 73.9 °F 16.0 °F 11% 29.86 in 10.0 mi SW 13.8 mph 20.7 mph N/A   Clear
11:57 AM 73.9 °F 14.0 °F 10% 29.84 in 10.0 mi SSW 12.7 mph 18.4 mph N/A   Clear
12:57 PM 75.9 °F 15.1 °F 10% 29.86 in 10.0 mi SSW 8.1 mph 21.9 mph N/A   Clear
1:57 PM 77.0 °F 14.0 °F 9% 29.84 in 10.0 mi SSW 11.5 mph 24.2 mph N/A   Clear
2:57 PM 78.1 °F 10.0 °F 7% 29.83 in 10.0 mi South 12.7 mph 19.6 mph N/A   Clear
3:57 PM 78.1 °F 12.9 °F 8% 29.80 in 10.0 mi SW 10.4 mph 20.7 mph N/A   Clear
4:57 PM 75.9 °F 10.0 °F 8% 29.81 in 10.0 mi South 11.5 mph 18.4 mph N/A   Clear
5:57 PM 75.0 °F 8.1 °F 8% 29.79 in 10.0 mi SSW 16.1 mph - N/A   Clear
6:57 PM 72.0 °F 10.0 °F 9% 29.78 in 10.0 mi SSW 18.4 mph - N/A   Clear
7:57 PM 64.9 °F 12.0 °F 13% 29.81 in 10.0 mi SW 8.1 mph - N/A   Clear
8:57 PM 60.1 °F 10.9 °F 14% 29.81 in 10.0 mi SW 6.9 mph - N/A   Clear
9:57 PM 55.9 °F 10.0 °F 16% 29.82 in 10.0 mi Calm Calm - N/A   Clear
10:57 PM 52.0 °F 10.9 °F 19% 29.83 in 10.0 mi Calm Calm - N/A   Clear
11:57 PM 50.0 °F 12.9 °F 23% 29.83 in 10.0 mi Calm Calm - N/A   Clear